Погода Мыс Терпения

Погода Мыс Терпения : погода сейчас, прогноз погоды и архив. Всё, что Вы хотите узнать о погоде Мыс Терпения!

Поиск расширенной информации на нашем сайте:

Другие новости

Новости СМИ2

Главная страница сайта

Новости сайта

02.10.2013

Напоминаем, что на нашем новом сайте вы можете получить высокодетализированные прогнозы погоды по пунктам России, СНГ и мира (включающие важные для авиации метеовеличины, такие как направление и скорость ветра, видимость, явления погоды, количество и форма облачности, нижняя и верхняя граница облачности), а также ознакомиться с разнообразными материалами по авиационной метеорологии и подборкой полезных ссылок на эту тему.

Сайт Метеоцентр.Азия посвящён разработке технологий оптимизации авиаметеорологического обслуживания, включая проектирование и перспективное создание нескольких автоматизированных авиаметеорологических систем:
- система выпуска высокодетальных прогностических карт явлений погоды для нижнего воздушного пространства по России и ближнему зарубежью;
- система верификации прогнозов TAF (выпускаемых синоптиками официальных АМСГ РФ и ближнего зарубежья) и AUTOTAF (выпускаемых сайтом Метеоцентр.Азия) - выявление ошибок, онлайн-сопоставление с фактической погодой METAR, автоматическое внесение коррективов в прогнозы при резком отклонении фактической погоды от прогноза, подсчёт оправдываемости прогнозов по элементам и в целом;
- система обработки, анализа и отображения авиаметеорологической информации для применения провайдерами метеорологической информации.

Рекомендуем: Станозолол Где купить Станозолол заказать Stanos пропионат пкт побочные лучший как принимать Купить

Погода Мыс Терпения - сегодня

Время (UTC), дата Ветер
(°,м/с) 
Видим.   Явления Облачность Т
(°С)
Тd
(°С)
f(%) Тe
(°С)
Pmin
(гПа)
dP
(гПа)
Po
(мм)
O2
(г/м3)
Тmin Tmax R s Состояние
почвы
03 20.03.17 350 (С) 11-15{19}  20000 м  позёмок  3/0 верхняя 
[Ci fib]
-2.7 -12 49 -9  1013.8  -0.5  760  310           
06 20.03.17 340 (С) 6-7{15}  20000 м    4/0 верхняя 
[Ci fib]
-2.4 -9.6 58 -6  1013.9  0.1  760  310           
09 20.03.17 330 (СЗ) 5-5{10}  20000 м    4/0 средняя 
[Ac As]
-4.4 -10.2 64 -8  1014.4  0.5  760  312    -2.4       
12 20.03.17 320 (СЗ) 5-5{06}  20000 м    ясно 
-4.9 -12.2 57 -9  1014.7  0.3  760  313           
15 20.03.17 330 (СЗ) 6-6{06}  20000 м    ясно 
-5.9 -12.2 61 -10  1014.4  -0.3  760  314           
18 20.03.17 350 (С) 4-5{07}  20000 м    ясно 
-7.6 -12.2 70 -11  1014.2  -0.2  760  316           
21 20.03.17 010 (С) 3-4{05}  20000 м    ясно 
-7.6 -13.2 64 -10  1013.9  -0.4  760  316  -7.7      мокрый или
старый снег
50-90% 
00 21.03.17 360 (С) 2-3{05}  20000 м    ясно 
-6.7 -11.7 68 -8  1014.2  0.4  760  315           
03 21.03.17 360 (С) 2-2{05}  20000 м    ясно 
-5.1 -11.2 62 -6  1014.2  760  313           
06 21.03.17 080 (В) 2-3{04}  20000 м    ясно 
-3.6 -11.1 56 -5  1013.1  -1.1  759  311           
09 21.03.17 140 (ЮВ) 2-2{03}  20000 м    ясно 
-5.5 -11.4 63 -7  1013.7  0.6  760  313    -3.6       
12 21.03.17 тихо () {02}  20000 м    3/0 верхняя 
[Ci fib]
-7 -10 79 -7  1013.8  0.1  760  315           
15 21.03.17 340 (С) 1{03}  20000 м    4/0 верхняя 
[Ci fib]
-7 -13.9 58 -7  1013.2  -0.6  759  315           
18 21.03.17 070 (В) 3-3{04}  20000 м    3/0 верхняя 
[Ci fib]
-8.7 -11.1 83 -12  1012.7  -0.5  759  317           
21 21.03.17 060 (СВ) 2-2{03}  20000 м    4/0 верхняя 
[Ci fib]
-9.3 -11 87 -11  1012.2  -0.5  758  317  -9.4      <0.5  мокрый или
старый снег
50-90% 
00 22.03.17 020 (С) 2-2{03}  20000 м    10/0 средняя 
[As op]
-7.3 -9.9 82 -9  1012.7  0.5  759  315           
03 22.03.17 360 (С) 3-3{05}  20000 м    10/0 средняя 
[As op]
-5.1 -8.8 75 -7  1012.4  -0.3  759  312           
06 22.03.17 010 (С) 3-4{05}  20000 м    10/0 средняя 
[As op]
-5.1 -7.3 85 -7  1012.3  0.1  759  312           
09 22.03.17 030 (СВ) 4-5{05}  20000 м    10/3 600 м средняя 
[Sc|As op]
-5.3 -6.8 89 -9  1012.7  0.4  759  313    -4.8       
12 22.03.17 360 (С) 4-6{06}  20000 м    10/3 600 м средняя 
[Sc|As op]
-5.7 -7 91 -9  1013.1  0.4  759  313           
15 22.03.17 340 (С) 4-5{06}  20000 м    3/3 600 м 
[Sc]
-7.2 -8.4 91 -11  1012.6  -0.5  759  315           
18 22.03.17 330 (СЗ) 3-3{05}  20000 м    10/3 600 м средняя 
[Sc|As op]
-6.6 -8.4 87 -9  1012.3  -0.2  759  314           
21 22.03.17 330 (СЗ) 3-3{04}  20000 м    4/3 600 м средняя 
[Sc|Ac trans]
-5.2 -7.8 82 -8  1012.1  -0.2  758  312  -7.7      <0.5  мокрый или
старый снег
50-90% 
00 23.03.17 320 (СЗ) 6-7{07}  20000 м    8/1 600 м верхняя 
[Sc|Cs]
-3.1 -6 80 -7  1011.9  -0.2  758  310           
03 23.03.17 320 (СЗ) 6-8{08}  20000 м    10/6 600 м кучево-дожд., средняя 
[Cb cap|As op]
-2.9 -4.8 87 -7  1011.6  -0.3  758  309           
Время (UTC), дата Ветер
(°,м/с) 
Видим.   Явления Облачность Т
(°С)
Тd
(°С)
f(%) Тe
(°С)
Pmin
(гПа)
dP
(гПа)
Po
(мм)
O2
(г/м3)
Тmin Tmax R s Состояние
почвы

Для получения пояснительной информации подведите курсор к названию столбца.

ПОГОДА Мыс Терпения - архив

Всё, что Вы хотите узнать о погоде Мыс Терпения - удобно и подробно!

Выберите нужную дату (начиная с 1 января 2015* года) и нажмите кнопку "Найти".
Будут отображены архивные сводки погоды по пункту Мыс Терпения, начиная с указанной даты.


Отображать данные в формате CSV (для использования в таблицах Excel)


Внимание! Наш архив погоды предназначен исключительно для личного некоммерческого использования в познавательных целях. Если Вам необходимы официальные справки о состоянии погоды (для производственных, юридических, коммерческих и т.п. целей), обращайтесь в органы Росгидромета.

*Примечание: данная дата относится к архиву по метеостанциям СССР (Россия, СНГ, Балтия).
Архив по метеостанциям Зарубежной Европы и Азии (кроме Китая) хранится 10 дней, по другим регионам земного шара (Китай, Африка, Америка, Австралия, Океания) - 1 день.

Мыс Терпения - район местоположения метеостанции


Название, широта, долгота, высота метеостанции:
Мыс Терпения 48.6°ш. 144.7°д. 33 м над ур. моря [Российская Федерация]

Дополнительная информация

В oтличие oт бoльшинства пoгoдных сайтoв мы публикуем пoдрoбную метеoинфoрмацию в детальнoм прoфессиoнальнoм фoрмате.

Характеристики температуры и влажнoсти вoздуха измеряются на высoте 2 м в тени вдали oт зданий и деревьев.
Скoрoсть ветра измеряется на высoте 10 м (на урoвне рoста челoвека скoрoсть ветра ниже в 1.5-2 раза). Если метеoстанция нахoдится в гoрoде или в лесу, тo скoрoсть ветра занижена на 2-4 м/с пo сравнению с oткрытым местoм. Скoрoсть ветра над акватoриями крупных рек и oзёр, а также на вершинах хoлмoв на 2-5 м/с выше, чем в oбычных услoвиях.
Атмoсфернoе давление в разных тoчках местнoсти мoжет значительнo oтличаться oт давления на метеoстанции, в зависимoсти oт услoвий рельефа (при пoдъёме на 10 м давление пoнижается примернo на 1 мм рт.ст.).